Mosinee, WI

2:40 PM CDT on July 26, 2017 (GMT -0500)
Central Wisconsin

Weather History for KCWA - January, 2014

Change the Weather History Date:

Wednesday, January 15, 2014

  Actual Average Record
Temperature  
Mean Temperature 10 °F -  
Max Temperature 14 °F 19 °F 35 °F (2006)
Min Temperature 6 °F 3 °F -18 °F (2009)
Degree Days  
Heating Degree Days 55    
Moisture  
Dew Point 7 °F    
Average Humidity 85    
Maximum Humidity 100    
Minimum Humidity 73    
Precipitation  
Precipitation 0.00 in - - ()
Sea Level Pressure  
Sea Level Pressure 29.82 in    
Wind  
Wind Speed 13 mph (WSW)    
Max Wind Speed 17 mph    
Max Gust Speed 25 mph    
Visibility 10 miles    
Events Snow    
Averages and records for this station are not official NWS values.
T = Trace of Precipitation, MM = Missing Value Source: NWS Daily Summary

Daily Weather History Graph

Daily Weather History Graph

Search for Another Location

Airport or City:

Trip Planner

Search our weather history database for the weather conditions in past years. The results will help you decide how hot, cold, wet, or windy it might be!

Date:

Astronomy

Jan. 15, 2014 Rise Set
Actual Time 7:32 AM CST 4:44 PM CST
Civil Twilight 7:00 AM CST 5:16 PM CST
Nautical Twilight 6:23 AM CST 5:52 PM CST
Astronomical Twilight 5:48 AM CST 6:27 PM CST
Moon 4:44 PM CST (1/15) 6:46 AM CST (1/15)
Length of Visible Light 10h 16m
Length of Day
9h 11m
Full, 100% of the Moon is Illuminated
Jan 15
Full
Jan 15
Full
Jan 23
Last Quarter
Jan 30
New
Feb 6
First Quarter

Hourly Weather History & Observations

Time (CST) Temp. Windchill Dew Point Humidity Pressure Visibility Wind Dir Wind Speed Gust Speed Precip Events Conditions
12:15 AM 14.0 °F -2.0 °F 10.4 °F 86% 29.89 in 10.0 mi NNW 16.1 mph 19.6 mph N/A   Overcast
12:35 AM 14.0 °F -0.8 °F 10.4 °F 86% 29.89 in 10.0 mi NW 13.8 mph 21.9 mph N/A Snow Light Snow
12:55 AM 14.0 °F -2.0 °F 10.4 °F 86% 29.89 in 10.0 mi NNW 16.1 mph 20.7 mph N/A   Overcast
1:15 AM 14.0 °F -0.2 °F 10.4 °F 86% 29.89 in 10.0 mi NW 12.7 mph 16.1 mph N/A Snow Light Snow
1:35 AM 14.0 °F -1.4 °F 10.4 °F 86% 29.90 in 7.0 mi NW 15.0 mph 18.4 mph N/A Snow Light Snow
1:55 AM 14.0 °F -0.2 °F 10.4 °F 86% 29.92 in 10.0 mi NW 12.7 mph 17.3 mph N/A   Overcast
2:15 AM 14.0 °F 0.5 °F 10.4 °F 86% 29.92 in 10.0 mi NW 11.5 mph - N/A Snow Light Snow
2:35 AM 14.0 °F -2.0 °F 8.6 °F 79% 29.93 in 10.0 mi NNW 16.1 mph - N/A   Overcast
2:55 AM 14.0 °F 1.2 °F 8.6 °F 79% 29.93 in 10.0 mi NW 10.4 mph 18.4 mph N/A   Overcast
3:15 AM 14.0 °F 0.5 °F 8.6 °F 79% 29.93 in 10.0 mi NW 11.5 mph 20.7 mph N/A   Overcast
3:35 AM 12.2 °F -1.8 °F 8.6 °F 85% 29.94 in 10.0 mi WNW 11.5 mph - N/A   Overcast
3:55 AM 12.2 °F -0.2 °F 8.6 °F 85% 29.94 in 10.0 mi WNW 9.2 mph - N/A Snow Light Snow
4:15 AM 12.2 °F -1.0 °F 8.6 °F 85% 29.94 in 10.0 mi WNW 10.4 mph - N/A   Overcast
4:35 AM 12.2 °F -1.0 °F 8.6 °F 85% 29.95 in 10.0 mi WNW 10.4 mph - N/A   Overcast
5:45 AM 10.4 °F -1.5 °F 8.6 °F 92% 29.95 in 10.0 mi NW 8.1 mph - N/A   Overcast
6:50 AM 10.4 °F -4.1 °F 6.8 °F 85% 29.96 in 10.0 mi WNW 11.5 mph - N/A   Overcast
7:47 AM 8.6 °F -2.6 °F 6.8 °F 92% 29.97 in 10.0 mi West 6.9 mph - N/A   Overcast
8:47 AM 8.6 °F -3.7 °F 6.8 °F 92% 29.98 in 10.0 mi West 8.1 mph - N/A   Overcast
9:50 AM 8.6 °F -1.3 °F 5.0 °F 85% 29.98 in 10.0 mi West 5.8 mph - N/A   Overcast
10:45 AM 8.6 °F -3.7 °F 5.0 °F 85% 29.98 in 10.0 mi West 8.1 mph - N/A   Overcast
11:45 AM 6.8 °F -5.9 °F 3.2 °F 85% 29.95 in 10.0 mi SW 8.1 mph - N/A   Overcast
12:45 PM 6.8 °F -6.9 °F 1.4 °F 79% 29.92 in 10.0 mi WSW 9.2 mph - N/A   Scattered Clouds
1:45 PM 6.8 °F -8.6 °F 1.4 °F 79% 29.89 in 10.0 mi WSW 11.5 mph - N/A   Clear
2:45 PM 8.6 °F -5.5 °F 1.4 °F 73% 29.88 in 10.0 mi WSW 10.4 mph - N/A   Clear
3:50 PM 6.8 °F -5.9 °F 1.4 °F 79% 29.85 in 10.0 mi SSW 8.1 mph - N/A   Clear
4:45 PM 6.8 °F -3.5 °F 1.4 °F 79% 29.84 in 10.0 mi South 5.8 mph - N/A   Clear
5:45 PM 6.8 °F -8.6 °F 3.2 °F 85% 29.79 in 10.0 mi SSW 11.5 mph - N/A   Scattered Clouds
6:50 PM 6.8 °F -9.3 °F 3.2 °F 85% 29.75 in 10.0 mi SSW 12.7 mph - N/A   Scattered Clouds
7:50 PM 8.6 °F -7.0 °F 3.2 °F 79% 29.70 in 10.0 mi South 12.7 mph - N/A   Overcast
8:45 PM 8.6 °F -8.3 °F 3.2 °F 79% 29.66 in 10.0 mi South 15.0 mph 21.9 mph N/A   Overcast
9:15 PM 10.4 °F -7.2 °F 5.0 °F 79% 29.62 in 7.0 mi South 17.3 mph 24.2 mph N/A   Overcast
9:35 PM 10.4 °F -7.2 °F 5.0 °F 79% 29.62 in 10.0 mi South 17.3 mph - N/A   Overcast
9:45 PM 8.6 °F -9.5 °F 6.8 °F 92% 29.61 in 10.0 mi South 17.3 mph - N/A   Overcast
9:55 PM 10.4 °F -5.4 °F 6.8 °F 85% 29.61 in 10.0 mi South 13.8 mph - N/A   Overcast
10:15 PM 10.4 °F -7.2 °F 6.8 °F 85% 29.59 in 10.0 mi South 17.3 mph 21.9 mph N/A   Overcast
10:35 PM 10.4 °F -6.6 °F 8.6 °F 92% 29.58 in 5.0 mi South 16.1 mph - N/A Snow Light Snow
10:55 PM 10.4 °F -7.2 °F 8.6 °F 92% 29.55 in 4.0 mi South 17.3 mph - N/A Snow Light Snow
11:15 PM 10.4 °F -7.2 °F 10.4 °F 100% 29.54 in 7.0 mi South 17.3 mph 25.3 mph N/A Snow Light Snow
11:35 PM 10.4 °F -5.4 °F 10.4 °F 100% 29.52 in 10.0 mi South 13.8 mph - N/A   Overcast
11:55 PM 12.2 °F -4.8 °F 10.4 °F 92% 29.50 in 10.0 mi South 17.3 mph - N/A Snow Light Snow